Location: Melbourne
(37.8666°S, 145.1333°E)
Time: 11:06:13
(UTC+11:00)

Iridium 72 - Visible Passes

Search period start: 07 March 2015 00:00
Search period end: 17 March 2015 00:00
Orbit: 776 x 779 km, 86.4° (Epoch: 06 March)

Date Brightness Start Highest point End Pass type
(mag) Time Alt. Az. Time Alt. Az. Time Alt. Az.
07 Mar 8.3 02:51:20 10° SE 02:52:27 12° ESE 02:52:27 12° ESE visible
07 Mar 6.6 04:29:44 10° S 04:32:53 36° SSW 04:32:53 36° SSW visible
08 Mar 7.1 03:56:12 10° S 03:58:58 31° SSE 03:58:58 31° SSE visible
08 Mar 7.7 05:39:16 10° SW 05:39:24 10° SW 05:39:24 10° SW visible
09 Mar 7.8 03:23:00 10° SSE 03:25:04 21° SSE 03:25:04 21° SSE visible
09 Mar 7.5 05:04:09 10° SSW 05:05:31 16° SW 05:05:31 16° SW visible
10 Mar 8.3 02:50:20 10° SSE 02:51:13 13° SE 02:51:13 13° SE visible
10 Mar 7.4 04:29:59 10° SSW 04:31:39 20° SSW 04:31:39 20° SSW visible
11 Mar 7.7 03:56:15 10° S 03:57:49 20° S 03:57:49 20° S visible
12 Mar 8.1 03:22:51 10° S 03:23:59 16° SSE 03:23:59 16° SSE visible
13 Mar 8.5 02:49:50 10° SSE 02:50:12 12° SSE 02:50:12 12° SSE visible
13 Mar 8.0 04:30:24 10° SSW 04:30:39 11° SSW 04:30:39 11° SSW visible
14 Mar 8.1 03:56:25 10° S 03:56:51 12° SSW 03:56:51 12° SSW visible
15 Mar 8.3 03:22:49 10° S 03:23:06 11° S 03:23:06 11° S visible
